Weather History for Skagway, AK

Change the Weather History Date:

Sunday, January 15, 2012

  Actual Average Record
Temperature  
Mean Temperature 8 °F -  
Max Temperature 10 °F 27 °F 44 °F (2015)
Min Temperature 5 °F 20 °F -10 °F (1969)
Degree Days  
Heating Degree Days 58    
Moisture  
Dew Point -13 °F    
Average Humidity 38    
Maximum Humidity 42    
Minimum Humidity 34    
Precipitation  
Precipitation 0.00 in - - ()
Sea Level Pressure  
Sea Level Pressure 30.79 in    
Wind  
Wind Speed 16 mph (NNE)    
Max Wind Speed 22 mph    
Max Gust Speed 37 mph    
Visibility 10 miles    
Events      
Averages and records for this station are not official NWS values.
T = Trace of Precipitation, MM = Missing Value Source: NWS Daily Summary

Daily Weather History Graph

Daily Weather History Graph

Search for Another Location

Airport:

Trip Planner

Search our weather history database for the weather conditions in past years. The results will help you decide how hot, cold, wet, or windy it might be!

Date:

Astronomy

Jan. 15, 2012 Rise Set
Actual Time 8:45 AM AKST 3:36 PM AKST
Civil Twilight 7:53 AM AKST 4:28 PM AKST
Nautical Twilight 7:00 AM AKST 5:21 PM AKST
Astronomical Twilight 6:11 AM AKST 6:10 PM AKST
Moon 12:01 AM AKST (1/15) 10:03 AM AKST (1/15)
Length of Visible Light 8h 34m
Length of Day
6h 51m
Waning Gibbous, 56% of the Moon is Illuminated
Jan 15
Waning Gibbous
Jan 16
Last Quarter
Jan 22
New
Jan 30
First Quarter
Feb 7
Full

Hourly Weather History & Observations

Time (AKST) Temp. Windchill Dew Point Humidity Pressure Visibility Wind Dir Wind Speed Gust Speed Precip Events Conditions
12:53 AM 10.0 °F -7.6 °F -11.0 °F 38% 30.75 in 10.0 mi NNE 17.3 mph 26.5 mph N/A   Clear
1:53 AM 10.0 °F -5.2 °F -11.0 °F 38% 30.76 in 10.0 mi NNE 12.7 mph 23.0 mph N/A   Clear
3:53 AM 9.0 °F -5.1 °F -9.9 °F 42% 30.76 in 10.0 mi NNE 10.4 mph 29.9 mph N/A   Clear
4:53 AM 9.0 °F -10.5 °F -11.0 °F 40% 30.76 in 10.0 mi NNE 20.7 mph 36.8 mph N/A   Clear
5:53 AM 9.0 °F -8.5 °F -11.9 °F 38% 30.77 in 10.0 mi NNE 16.1 mph 35.7 mph N/A   Clear
6:53 AM 8.1 °F -11.7 °F -11.9 °F 40% 30.76 in 10.0 mi NE 20.7 mph 32.2 mph N/A   Clear
7:53 AM 7.0 °F -11.0 °F -11.9 °F 42% 30.77 in 10.0 mi NE 16.1 mph 34.5 mph 0.00 in   Clear
8:53 AM 7.0 °F -13.6 °F -11.9 °F 42% 30.77 in 10.0 mi NNE 21.9 mph 34.5 mph N/A   Clear
9:53 AM 8.1 °F -10.7 °F -13.0 °F 38% 30.79 in 10.0 mi NNE 18.4 mph 27.6 mph N/A   Clear
10:53 AM 9.0 °F -7.3 °F -13.0 °F 36% 30.80 in 10.0 mi NE 13.8 mph 23.0 mph N/A   Clear
11:53 AM 9.0 °F -9.0 °F -11.9 °F 38% 30.79 in 10.0 mi NNE 17.3 mph 23.0 mph N/A   Clear
12:53 PM 10.0 °F -7.6 °F -11.0 °F 38% 30.79 in 10.0 mi NNE 17.3 mph 26.5 mph N/A   Clear
1:53 PM 10.0 °F -5.2 °F -13.0 °F 35% 30.80 in 10.0 mi NNE 12.7 mph 23.0 mph N/A   Clear
2:53 PM 9.0 °F -10.5 °F -13.0 °F 36% 30.79 in 10.0 mi NNE 20.7 mph 27.6 mph N/A   Clear
3:53 PM 8.1 °F -7.0 °F -14.1 °F 36% 30.81 in 10.0 mi NNE 11.5 mph 24.2 mph N/A   Clear
4:53 PM 8.1 °F -10.7 °F -13.0 °F 38% 30.82 in 10.0 mi NNE 18.4 mph 25.3 mph N/A   Clear
5:53 PM 8.1 °F -8.4 °F -13.0 °F 38% 30.82 in 10.0 mi NNE 13.8 mph - N/A   Clear
6:53 PM 8.1 °F -6.2 °F -14.1 °F 36% 30.82 in 10.0 mi NNE 10.4 mph 16.1 mph N/A   Clear
7:53 PM 8.1 °F -5.3 °F -15.0 °F 34% 30.82 in 10.0 mi NNE 9.2 mph 18.4 mph N/A   Clear
8:53 PM 7.0 °F -11.6 °F -14.1 °F 38% 30.82 in 10.0 mi NNE 17.3 mph 25.3 mph N/A   Clear
9:53 PM 6.1 °F -10.9 °F -16.1 °F 36% 30.82 in 10.0 mi North 13.8 mph 21.9 mph N/A   Clear
10:53 PM 5.0 °F -12.3 °F -16.1 °F 37% 30.82 in 10.0 mi North 13.8 mph 21.9 mph N/A   Clear
11:53 PM 5.0 °F -10.8 °F -16.1 °F 37% 30.82 in 10.0 mi North 11.5 mph 19.6 mph N/A   Clear